STARLINK-36251, 68093

Orbit data source: Space-Track

STARLINK-36251, 68093 is a payload satellite owned by SpaceX/Seattle (US) in LEO that was launched on Wed, 04 Mar 2026 UTC via an FALCON 9 launch vehicle from the Air Force Eastern Test Range (AFETR). Payload-class satellites include a variety of spacecraft equipped with specific instruments for various scientific and technological missions. These include communications satellites like Starlink; space stations such as the ISS; scientific satellites like the Hubble; Earth observation satellites from companies like Planet Labs, Umbra, and HawkEye 360; GPS; miniature CubeSats for education and research; and military/defense satellites.

Loading next visibility...
Identifier
68093, 2026-042AA
Orbit
LEO
Country
Flag of USUS
Related business
Manufacturer
SpaceX/Seattle
Mission
Operational Commercial Communications
Bus & Motor
STARLINK V2MO, Unknown motor
Mass
575 kg wet, ~530 kg dry
Launch date (UTC)
2026-03-04 (2 months ago)
Launch vehicle
FALCON 9
Launch site
Air Force Eastern Test Range (AFETR)
Object type
Payload
Rocket body
Debris
Shape & HBR
Box + 2 Pan, 17.7 m
Radar Cross Section
36.964 m²

Expand to show TLE details & history
Last TLE update: 20 hours ago

TLE from 20 hours ago
0 STARLINK-36251
1 68093U 26042AA  26118.80825052  .00054885  00000-0  98750-3 0  9990
2 68093  53.1588 306.2716 0000911  90.1805 269.9308 15.49322639  9962
Epoch: 2026-04-28T19:23Z
TLE epoch observation values (Epoch: 2026-04-28T19:23:52.844Z)
Latitude
-0.00008°
Longitude
158.5231°
Altitude
419.614 km
Speed
7.661 km/s
True Right ascension
20h 25m 05s
True Declination
0° 00' 00"
Sunlit
Object was in daylight at epoch
Visualization orbit readout
Latitude
Unknown
Longitude
Unknown
Altitude
Unknown
Speed
Unknown
Apparent Right ascension
Unknown
Apparent Declination
Unknown
Sunlit
N/A
Visualization observer readout
Local Sidereal Time
22:53:12
Azimuth
Unknown
Elevation
Unknown
Doppler factor
Unknown
Orbital elements
Apogee altitude
419.584 km
Perigee altitude
418.346 km
Semi-major axis
6,797.102 km
Eccentricity
0.00009
Inclination
53.1588°
RAAN
306.2716°
Arg. of periapsis
90.1805°
True anomaly
269.92036°
Mean anomaly
269.9308°
Eccentric anomaly
269.92558°
Mean motion
3.87309 °/min
Orbital period
92.95 mins
BSTAR
0.0009875
Loading maneuver chart data...
Computing Atmospheric mass density...
Loading historical data...
Loading historical data...
Loading historical data...
Loading historical data...
Loading historical data...
Loading historical data...
Loading historical data...

Documentation

Showing up to 5 results
|